This demonstration page uses our WeatherBlox Daily Observations layout. Learn more.

40.92945, -100.16068

Hourly Observations for August 1, 2018

Temp ( °F °C ) Dew Point ( °F °C ) Humidity (%) Winds ( mph kmh ) Pressure ( in mb ) Visibility ( mi km ) Precip ( " mm )
12:15 am 00:15 Clear 64 17.5 56 13.6 78 78 Calm 30 1016 10 16.0934 0 0
12:35 am 00:35 Clear 64 17.5 56 13.3 77 77 S 3 6 30 1016 10 16.0934 0 0
12:55 am 00:55 Clear 64 17.5 56 13.2 76 76 S 3 6 30 1016 10 16.0934 0 0
1:15 am 01:15 Clear 62 16.8 56 13.1 79 79 SSW 3 6 30.03 1017 10 16.0934 0 0
1:35 am 01:35 Clear 62 16.6 56 13.5 82 82 Calm 30.03 1017 10 16.0934 0 0
1:55 am 01:55 Clear 61 16.2 56 13.2 83 83 Calm 30.03 1017 10 16.0934 0 0
2:20 am 02:20 Clear 61 16 56 13.2 84 84 Calm 30.03 1017 10 16.0934 0 0
2:35 am 02:35 Clear 64 18 56 13.3 74 74 Calm 30 1016 10 16.0934 0 0
2:55 am 02:55 Clear 59 15.2 55 12.9 86 86 Calm 30.03 1017 10 16.0934 0 0
3:15 am 03:15 Clear 64 17.5 56 13.2 76 76 Calm 30 1016 10 16.0934 0 0
3:35 am 03:35 Clear 63 17.2 55 12.9 76 76 Calm 30 1016 10 16.0934 0 0
3:55 am 03:55 Clear 59 15.2 55 12.8 86 86 Calm 30.03 1017 10 16.0934 0 0
4:15 am 04:15 Clear 58 14.5 55 12.5 88 88 Calm 30.03 1017 10 16.0934 0 0
4:35 am 04:35 Clear 60 15.3 55 12.7 85 85 Calm 30.03 1017 10 16.0934 0 0
4:55 am 04:55 Clear 58 14.4 54 12.4 88 88 Calm 30.03 1017 7 11.26538 0 0
5:15 am 05:15 Clear 57 13.8 54 12.1 90 90 Calm 30.03 1017 10 16.0934 0 0
5:35 am 05:35 Clear 57 13.7 54 12.3 91 91 Calm 30 1016 10 16.0934 0 0
5:55 am 05:55 Clear 56 13.5 54 12 91 91 Calm 30 1016 10 16.0934 0 0
6:15 am 06:15 Clear 57 13.8 54 12.2 90 90 Calm 30 1016 10 16.0934 0 0
6:35 am 06:35 Clear 56 13.2 53 11.7 91 91 WSW 3 6 30.03 1017 10 16.0934 0 0
6:55 am 06:55 Sunny 56 13.3 53 11.6 90 90 Calm 30.06 1018 10 16.0934 0 0
7:15 am 07:15 Sunny 56 13.6 54 12.3 92 92 Calm 30 1016 10 16.0934 0 0
7:35 am 07:35 Sunny 59 14.9 56 13.3 90 90 Calm 30.03 1017 10 16.0934 0 0
7:55 am 07:55 Sunny 61 16.3 57 14 86 86 Calm 30.03 1017 10 16.0934 0 0
8:15 am 08:15 Sunny 63 17.2 58 14.2 83 83 Calm 30 1016 10 16.0934 0 0
8:35 am 08:35 Sunny 65 18.4 58 14.7 79 79 SSW 3 6 30 1016 10 16.0934 0 0
8:55 am 08:55 Sunny 67 19.2 59 14.9 76 76 Calm 30 1016 10 16.0934 0 0
9:15 am 09:15 Sunny 68 20.2 60 15.7 75 75 W 3 6 30 1016 10 16.0934 0 0
9:35 am 09:35 Sunny 70 21.2 59 15 68 68 WNW 3 6 29.97 1015 10 16.0934 0 0
9:55 am 09:55 Sunny 72 22.2 60 15.7 67 67 Calm 29.97 1015 10 16.0934 0 0
10:15 am 10:15 Sunny 75 23.9 62 16.5 63 63 WNW 6 9 29.97 1015 10 16.0934 0 0
10:35 am 10:35 Sunny 77 24.8 62 16.6 60 60 W 8 13 29.91 1013 10 16.0934 0 0
10:55 am 10:55 Sunny 78 25.6 62 16.9 59 59 WNW 8 13 29.91 1013 10 16.0934 0 0
11:15 am 11:15 Sunny 80 26.6 61 16.2 53 53 W 9 15 29.91 1013 10 16.0934 0 0
11:35 am 11:35 Sunny 81 27.2 62 16.6 52 52 WSW 8 13 29.91 1013 10 16.0934 0 0
11:55 am 11:55 Sunny 82 27.7 61 16 49 49 W 10 17 29.88 1012 10 16.0934 0 0
12:15 pm 12:15 Sunny 83 28.5 62 16.9 49 49 WSW 5 7 29.88 1012 10 16.0934 0 0
12:35 pm 12:35 Sunny 84 28.9 62 16.8 48 48 W 6 9 29.88 1012 10 16.0934 0 0
12:55 pm 12:55 Sunny 85 29.2 62 16.5 46 46 W 8 13 29.88 1012 10 16.0934 0 0
1:15 pm 13:15 Sunny 84 28.9 61 16.3 46 46 W 6 9 29.88 1012 10 16.0934 0 0
1:35 pm 13:35 Sunny 85 29.4 62 16.6 46 46 WNW 6 9 29.88 1012 10 16.0934 0 0
1:55 pm 13:55 Sunny 86 29.8 62 16.4 44 44 SW 5 7 29.88 1012 10 16.0934 0 0
2:15 pm 14:15 Sunny 86 30.1 58 14.5 39 39 W 6 9 29.88 1012 10 16.0934 0 0
2:35 pm 14:35 Sunny 87 30.6 61 16 41 41 W 7 11 29.88 1012 10 16.0934 0 0
2:55 pm 14:55 Sunny 87 30.5 58 14.3 37 37 SW 3 6 29.88 1012 10 16.0934 0 0
3:15 pm 15:15 Sunny 87 30.8 56 13.3 34 34 W 3 6 29.88 1012 10 16.0934 0 0
3:35 pm 15:35 Sunny 88 31 57 13.7 35 35 WSW 6 9 29.85 1011 10 16.0934 0 0
3:55 pm 15:55 Sunny 87 30.6 56 13.1 34 34 W 3 6 29.88 1012 10 16.0934 0 0
4:15 pm 16:15 Sunny 88 30.9 54 12 31 31 Calm 29.85 1011 10 16.0934 0 0
4:35 pm 16:35 Sunny 88 31 55 12.6 32 32 SW 5 7 29.85 1011 10 16.0934 0 0
4:55 pm 16:55 Sunny 88 31 55 12.5 32 32 SW 5 7 29.85 1011 10 16.0934 0 0
5:15 pm 17:15 Sunny 88 31 54 12.1 31 31 Calm 29.85 1011 10 16.0934 0 0
5:35 pm 17:35 Sunny 88 30.9 55 12.7 33 33 SW 3 6 29.85 1011 10 16.0934 0 0
5:55 pm 17:55 Sunny 87 30.8 56 13.4 35 35 WSW 3 6 29.88 1012 10 16.0934 0 0
6:15 pm 18:15 Sunny 88 30.9 56 13.1 34 34 Calm 29.85 1011 10 16.0934 0 0
6:35 pm 18:35 Sunny 88 31 57 14 35 35 Calm 29.85 1011 10 16.0934 0 0
6:55 pm 18:55 Sunny 87 30.6 56 13.6 35 35 Calm 29.88 1012 10 16.0934 0 0
7:15 pm 19:15 Sunny 85 29.7 58 14.6 40 40 Calm 29.88 1012 10 16.0934 0 0
7:35 pm 19:35 Sunny 85 29.5 61 15.9 44 44 Calm 29.88 1012 10 16.0934 0 0
7:55 pm 19:55 Sunny 83 28.6 63 17.3 50 50 Calm 29.88 1012 10 16.0934 0 0
8:15 pm 20:15 Sunny 82 27.5 64 18 56 56 Calm 29.88 1012 10 16.0934 0 0
8:35 pm 20:35 Sunny 79 26.3 65 18.2 61 61 Calm 29.91 1013 10 16.0934 0 0
8:55 pm 20:55 Clear 77 25.1 65 18.6 67 67 S 3 6 29.91 1013 10 16.0934 0 0
9:15 pm 21:15 Clear 74 23.5 66 18.7 75 75 Calm 29.94 1014 10 16.0934 0 0
9:35 pm 21:35 Clear 73 23 65 18.5 76 76 Calm 29.94 1014 10 16.0934 0 0
9:55 pm 21:55 Clear 74 23.1 64 17.7 72 72 Calm 29.94 1014 10 16.0934 0 0
10:15 pm 22:15 Clear 73 22.5 63 17.3 73 73 Calm 29.94 1014 10 16.0934 0 0
10:35 pm 22:35 Clear 72 22 63 17.1 74 74 Calm 29.94 1014 10 16.0934 0 0
10:55 pm 22:55 Clear 68 20 63 17.1 83 83 Calm 29.97 1015 10 16.0934 0 0
11:15 pm 23:15 Clear 67 19.6 63 17 85 85 Calm 29.97 1015 10 16.0934 0 0
11:35 pm 23:35 Clear 66 19.1 62 16.6 86 86 ENE 3 6 29.97 1015 10 16.0934 0 0
11:55 pm 23:55 Clear 69 20.5 61 16.3 77 77 Calm 29.94 1014 10 16.0934 0 0

Powered by AerisWeather